User: anonymous   Login
Location: Unspecified
(0.0000°N, 0.0000°E)
Time: 02:46:45
(UTC+00:00)
Language:

ARGOS - Orbit

View from above orbital plane
View from above orbital plane
View from above satellite
View from above satellite

Ground track
Ground track

The orbit data is extracted from the following two-line orbital elements,

1 25634U 99008A   17146.76581774 +.00000004 +00000-0 +22568-4 0  9991
2 25634 098.6205 210.1363 0009033 269.6002 090.4140 14.19311623944958
Epoch (UTC): 26 May 2017 18:22:46
Eccentricity: 0.0009033
inclination: 98.6205°
perigee height: 821 km
apogee height: 834 km
right ascension of ascending node: 210.1363°
argument of perigee: 269.6002°
revolutions per day: 14.19311623
mean anomaly at epoch: 90.4140°
orbit number at epoch: 94495

The dashed part of the orbit path shows where the satellite is in the earth's shadow,  

DLR